TimeEST,TemperatureF,Dew PointF,Humidity,Sea Level PressureIn,VisibilityMPH,Wind Direction,Wind SpeedMPH,Gust SpeedMPH,PrecipitationIn,Events,Conditions,WindDirDegrees,DateUTC
12:15 AM,28.4,23.0,80,30.28,5.0,SE,4.6,-,N/A,,Haze,140,2012-12-06 05:15:00
12:35 AM,30.2,23.0,75,30.27,5.0,SE,6.9,-,N/A,,Haze,130,2012-12-06 05:35:00
12:55 AM,30.2,23.0,75,30.27,10.0,SE,8.1,-,N/A,,Clear,130,2012-12-06 05:55:00
1:15 AM,30.2,23.0,75,30.26,10.0,SE,8.1,-,N/A,,Clear,130,2012-12-06 06:15:00
1:55 AM,30.2,23.0,75,30.26,10.0,SE,6.9,-,N/A,,Clear,130,2012-12-06 06:55:00
8:35 AM,28.4,23.0,80,30.19,10.0,SE,6.9,-,N/A,,Clear,140,2012-12-06 13:35:00
8:55 AM,30.2,24.8,80,30.19,10.0,SE,5.8,-,N/A,,Clear,140,2012-12-06 13:55:00
9:15 AM,30.2,24.8,80,30.18,10.0,SE,5.8,-,N/A,,Clear,140,2012-12-06 14:15:00
9:35 AM,30.2,24.8,80,30.18,10.0,SE,4.6,-,N/A,,Clear,140,2012-12-06 14:35:00
9:55 AM,30.2,26.6,86,30.18,10.0,SE,4.6,-,N/A,,Clear,140,2012-12-06 14:55:00
10:15 AM,30.2,26.6,86,30.18,10.0,SE,4.6,-,N/A,,Clear,140,2012-12-06 15:15:00
10:35 AM,32.0,26.6,80,30.17,10.0,SE,4.6,-,N/A,,Clear,140,2012-12-06 15:35:00
10:55 AM,32.0,26.6,80,30.17,10.0,SSE,4.6,-,N/A,,Clear,150,2012-12-06 15:55:00
11:15 AM,32.0,26.6,80,30.16,10.0,South,4.6,-,N/A,,Clear,170,2012-12-06 16:15:00
11:35 AM,32.0,28.4,87,30.14,10.0,SE,5.8,-,N/A,,Clear,140,2012-12-06 16:35:00
11:55 AM,33.8,28.4,81,30.12,10.0,SE,5.8,-,N/A,,Clear,140,2012-12-06 16:55:00
12:15 PM,33.8,28.4,81,30.10,10.0,SE,5.8,-,N/A,,Clear,140,2012-12-06 17:15:00
12:35 PM,35.6,30.2,81,30.10,10.0,SSE,3.5,-,N/A,,Clear,150,2012-12-06 17:35:00
12:55 PM,35.6,30.2,81,30.10,10.0,SSE,5.8,-,N/A,,Clear,160,2012-12-06 17:55:00
1:15 PM,37.4,30.2,75,30.08,10.0,South,3.5,-,N/A,,Clear,170,2012-12-06 18:15:00
1:35 PM,37.4,30.2,75,30.07,10.0,South,4.6,-,N/A,,Clear,190,2012-12-06 18:35:00
1:55 PM,39.2,32.0,75,30.06,10.0,South,4.6,-,N/A,,Clear,170,2012-12-06 18:55:00
2:15 PM,39.2,32.0,75,30.05,10.0,South,4.6,-,N/A,,Clear,180,2012-12-06 19:15:00
2:35 PM,41.0,32.0,70,30.04,10.0,South,4.6,-,N/A,,Clear,190,2012-12-06 19:35:00
2:55 PM,41.0,32.0,70,30.03,10.0,South,4.6,-,N/A,,Clear,170,2012-12-06 19:55:00
3:15 PM,41.0,32.0,70,30.02,10.0,South,5.8,-,N/A,,Clear,170,2012-12-06 20:15:00
3:35 PM,41.0,32.0,70,30.01,10.0,SSE,5.8,-,N/A,,Clear,160,2012-12-06 20:35:00
3:55 PM,41.0,32.0,70,30.01,10.0,SSE,3.5,-,N/A,,Clear,160,2012-12-06 20:55:00
4:15 PM,41.0,32.0,70,30.02,10.0,SSE,4.6,-,N/A,,Clear,150,2012-12-06 21:15:00
4:35 PM,41.0,32.0,70,30.02,10.0,SSE,3.5,-,N/A,,Clear,150,2012-12-06 21:35:00
4:55 PM,39.2,32.0,75,30.01,10.0,SE,3.5,-,N/A,,Clear,140,2012-12-06 21:55:00
5:15 PM,37.4,32.0,81,30.01,10.0,SE,4.6,-,N/A,,Clear,140,2012-12-06 22:15:00
5:35 PM,37.4,32.0,81,30.00,10.0,SE,4.6,-,N/A,,Clear,140,2012-12-06 22:35:00
5:55 PM,37.4,32.0,81,30.00,10.0,SE,4.6,-,N/A,,Clear,140,2012-12-06 22:55:00
6:15 PM,37.4,32.0,81,30.00,10.0,SE,4.6,-,N/A,,Clear,140,2012-12-06 23:15:00
6:35 PM,37.4,33.8,87,30.00,10.0,SE,3.5,-,N/A,,Clear,130,2012-12-06 23:35:00
6:55 PM,37.4,33.8,87,29.99,10.0,Calm,Calm,-,N/A,,Clear,0,2012-12-06 23:55:00
7:15 PM,37.4,33.8,87,29.99,10.0,ESE,3.5,-,N/A,,Clear,120,2012-12-07 00:15:00
7:35 PM,37.4,33.8,87,29.99,10.0,Calm,Calm,-,N/A,,Clear,0,2012-12-07 00:35:00
7:55 PM,37.4,33.8,87,29.99,10.0,ESE,3.5,-,N/A,,Clear,120,2012-12-07 00:55:00
8:15 PM,37.4,33.8,87,29.99,10.0,ESE,3.5,-,N/A,,Clear,120,2012-12-07 01:15:00
8:35 PM,37.4,33.8,87,29.98,10.0,ESE,3.5,-,N/A,,Clear,120,2012-12-07 01:35:00
8:55 PM,37.4,33.8,87,29.97,10.0,SE,4.6,-,N/A,,Clear,130,2012-12-07 01:55:00
9:15 PM,37.4,33.8,87,29.99,10.0,Calm,Calm,-,N/A,,Clear,0,2012-12-07 02:15:00
9:35 PM,37.4,33.8,87,29.98,10.0,Calm,Calm,-,N/A,,Scattered Clouds,0,2012-12-07 02:35:00
9:55 PM,37.4,33.8,87,29.98,10.0,Calm,Calm,-,N/A,,Scattered Clouds,0,2012-12-07 02:55:00
10:15 PM,37.4,33.8,87,29.97,10.0,Calm,Calm,-,N/A,,Mostly Cloudy,0,2012-12-07 03:15:00
10:35 PM,37.4,33.8,87,29.97,10.0,South,4.6,-,N/A,,Overcast,190,2012-12-07 03:35:00
10:55 PM,39.2,33.8,81,29.96,10.0,South,3.5,-,N/A,,Scattered Clouds,170,2012-12-07 03:55:00
11:15 PM,39.2,33.8,81,29.96,10.0,Calm,Calm,-,N/A,,Clear,0,2012-12-07 04:15:00
11:35 PM,39.2,33.8,81,29.95,10.0,South,3.5,-,N/A,,Scattered Clouds,170,2012-12-07 04:35:00
11:55 PM,39.2,33.8,81,29.96,10.0,Calm,Calm,-,N/A,,Overcast,0,2012-12-07 04:55:00